Location: Newark
(50.4348°N, 30.5552°E)
Time: 07:06:50
(UTC+00:00)

S-56A Canister/Altair - All Passes

Search period start: 27 January 2020 00:00
Search period end: 06 February 2020 00:00
Orbit: 634 x 2498 km, 38.9° (Epoch: 26 January)

Date Brightness Start Highest point End Pass type
(mag) Time Alt. Az. Time Alt. Az. Time Alt. Az.
27 Jan - 17:40:37 10° SSW 17:45:27 20° SSE 17:49:21 10° ESE visible
27 Jan - 19:44:01 10° WSW 19:48:22 23° S 19:52:02 10° SE visible
27 Jan - 21:48:56 10° SW 21:50:53 12° SSW 21:52:47 10° S night (unlit)
28 Jan - 17:07:38 10° SSW 17:12:51 20° SSE 17:16:59 10° ESE visible
28 Jan - 19:11:02 10° WSW 19:15:51 24° S 19:19:46 10° SE visible
28 Jan - 21:15:48 10° SW 21:18:26 14° SSW 21:20:53 10° S night (unlit)
29 Jan - 16:34:36 10° SSW 16:40:13 21° SSE 16:44:36 10° ESE visible
29 Jan - 18:38:00 10° SW 18:43:20 26° S 18:47:31 10° SE visible
29 Jan - 20:42:42 10° WSW 20:45:59 17° SSW 20:48:54 10° SSE night (unlit)
30 Jan - 16:01:33 10° SSW 16:07:32 21° SSE 16:12:12 10° ESE visible
30 Jan - 18:04:53 10° SW 18:10:46 27° S 18:15:15 10° ESE visible
30 Jan - 20:09:36 10° WSW 20:13:31 19° SSW 20:16:52 10° SSE visible
31 Jan - 15:28:28 10° SSW 15:34:49 20° SSE 15:39:45 10° ESE visible
31 Jan - 17:31:42 10° SW 17:38:10 29° S 17:42:59 10° ESE visible
31 Jan - 19:36:27 10° WSW 19:41:02 22° SSW 19:44:47 10° SSE visible
01 Feb - 14:55:23 10° SSW 15:02:04 20° SSE 15:07:16 10° ESE daylight
01 Feb - 16:58:27 10° SW 17:05:32 30° S 17:10:42 10° ESE visible
01 Feb - 19:03:16 10° WSW 19:08:32 24° SSW 19:12:39 10° SE visible
02 Feb - 14:22:19 10° SSW 14:29:16 20° SSE 14:34:43 10° ESE daylight
02 Feb - 16:25:09 10° SW 16:32:51 31° S 16:38:23 10° ESE visible
02 Feb - 18:30:01 10° WSW 18:36:00 27° SSW 18:40:31 10° SE visible
02 Feb - 20:36:44 10° SW 20:38:20 11° SW 20:39:50 10° SSW visible
03 Feb - 13:49:16 10° SSW 13:56:24 19° SSE 14:02:06 10° ESE daylight
03 Feb - 15:51:49 10° SW 16:00:07 31° S 16:06:03 10° ESE visible
03 Feb - 17:56:42 10° WSW 18:03:25 30° SSW 18:08:21 10° SE visible
03 Feb - 20:02:51 10° WSW 20:05:53 14° SSW 20:08:33 10° S visible
04 Feb - 13:16:17 10° S 13:23:31 19° SSE 13:29:23 10° ESE daylight
04 Feb - 15:18:27 10° SW 15:27:19 32° S 15:33:40 10° ESE visible
04 Feb - 17:23:19 10° WSW 17:30:48 33° S 17:36:08 10° SE visible
04 Feb - 19:29:17 10° WSW 19:33:25 17° SSW 19:36:52 10° S visible
05 Feb - 12:43:22 10° S 12:50:36 18° SSE 12:56:33 10° ESE daylight
05 Feb - 14:45:03 10° SW 14:54:28 32° SSE 15:01:14 10° ESE daylight
05 Feb - 16:49:54 10° WSW 16:58:07 35° S 17:03:54 10° ESE visible
05 Feb - 18:55:47 10° WSW 19:00:56 21° SSW 19:05:01 10° SSE visible
